#timestamp,LO_Frequency,Hit,StdDev 
1631581215.0,286047001.0,N
1631581215.9,286047001.0,N
1631581235.8,286047000.9,N
1631581255.6,286047000.9,N
1631581275.4,286047000.3,N
1631581295.3,286047000.4,N
1631581315.1,286046998.1,N
1631581335.8,286047000.7,N
1631581355.7,286046998.1,N
1631581375.5,286047000.0,N
1631581395.4,286046999.8,N
1631581415.2,286047000.4,N
1631581435.0,286047000.9,N
1631581435.9,286047000.9,N
1631581485.8,286047001.0,E
1631581495.7,286047000.7,N
1631581515.6,286047000.5,P
1631581535.4,286047001.1,P
1631581555.3,286046998.1,Y
1631581575.1,286047001.1,P
1631581576.0,286047001.1,P
1631581595.8,286047000.8,P
1631581615.7,286047000.8,Y
1631581635.5,286046999.4,P
1631581655.3,286046998.4,N
1631581675.2,286046998.3,N
1631581695.0,286046998.7,N
1631581695.9,286046998.7,N
1631581715.8,286046998.3,N
1631581735.6,286047001.1,N
1631581755.4,286046998.9,N
1631581775.3,286046999.3,N
1631581795.1,286046998.5,N
1631581815.9,286047001.2,N
1631581835.7,286046999.3,N
1631581855.5,286046996.8,Y
1631581875.4,286046997.1,P
1631581895.2,286046997.3,N
1631581915.0,286046997.2,N
1631581915.9,286046997.2,Y
1631581935.8,286047000.9,P
1631581955.6,286046998.4,N
1631581975.5,286046998.6,N
1631581995.3,286046998.4,N
1631582015.1,286047000.9,N
1631582035.9,286046998.3,N
1631582055.7,286046999.3,N
1631582075.5,286046998.7,N
1631582095.4,286046999.5,N
1631582115.2,286046998.4,N
1631582135.1,286046998.9,N
1631582136.0,286046998.9,N
1631582155.8,286046999.6,N
1631582175.6,286046998.9,N
1631582195.5,286046999.5,N
1631582215.3,286046995.0,Y
1631582235.1,286046996.5,P
1631582255.9,286046996.9,N
1631582275.7,286046996.8,N
1631582295.6,286046997.7,N
1631582315.4,286046997.6,N
1631582335.2,286046996.7,Y
1631582355.1,286047000.1,P
1631582356.0,286047000.1,N
1631582375.8,286047002.6,N
1631582395.7,286047004.4,N
1631582415.5,286047001.5,N
1631582435.3,286047002.0,N
1631582455.2,286047002.5,N
1631582475.9,286047002.8,N
1631582495.7,286047002.5,N
1631582515.6,286047002.5,N
1631582535.4,286047001.5,N
1631582555.2,286047004.4,N
1631582575.1,286047001.6,N
1631582576.0,286047001.6,N
1631582595.8,286047004.4,N
1631582615.7,286047002.5,N
1631582635.5,286047002.6,N
1631582655.3,286047001.6,N
1631582675.2,286047002.0,N
1631582695.0,286047002.3,N
1631582695.9,286047002.3,N
1631582715.7,286047002.0,N
1631582735.6,286046999.8,N
1631582755.4,286046998.5,N
1631582775.3,286046998.5,N
1631582795.1,286047000.3,N
1631582796.0,286047000.3,N
1631582815.8,286047000.4,N
1631582835.7,286047000.3,N
1631582855.5,286047000.4,N
1631582875.3,286047002.6,N
1631582895.2,286047000.4,N
1631582915.0,286047000.8,N
1631582915.9,286047000.8,N
1631582935.8,286047000.1,N
1631582955.6,286047002.3,N
1631582975.4,286047001.4,N
1631582995.3,286047001.3,N
1631583015.1,286047002.7,N
1631583035.8,286047002.3,N
1631583055.7,286047002.2,N
1631583075.5,286047002.2,N
1631583095.4,286047000.2,N
1631583115.2,286047000.3,N
1631583135.0,286046998.6,N
1631583135.9,286046998.6,N
1631583155.8,286046998.5,N
1631583175.6,286046996.5,N
1631583195.4,286046998.2,N
1631583215.3,286046999.6,N
1631583235.1,286046997.0,N
1631583255.9,286046999.5,N
1631583275.7,286046997.4,N
1631583295.5,286046997.3,N
1631583315.4,286046998.5,N
1631583335.2,286046998.1,N
1631583355.0,286047001.0,N
1631583355.9,286047001.0,N
1631583375.8,286046998.9,N
1631583395.6,286046998.4,N
1631583415.5,286046998.8,N
1631583435.3,286046999.2,N
1631583455.1,286046998.2,N
1631583475.9,286046998.3,N
1631583495.7,286046998.7,N
1631583515.5,286046996.5,N
1631583535.4,286046998.2,N
1631583555.2,286046998.4,N
1631583575.1,286046999.0,N
1631583576.0,286046999.0,N
1631583595.8,286047000.9,N
1631583615.6,286047000.3,N
1631583635.5,286047001.0,N
1631583655.3,286047000.6,N
1631583675.1,286047000.7,N
1631583695.9,286046998.1,N
1631583715.7,286046998.6,N
1631583735.6,286047000.8,N
1631583755.4,286046998.8,N
1631583775.2,286047001.2,N
1631583795.1,286046998.7,N
1631583796.0,286046998.7,N
1631583815.8,286046998.9,N
1631583835.6,286046996.5,N
1631583855.5,286046999.6,N
1631583875.3,286046999.2,N
1631583895.2,286046998.9,N
1631583915.9,286046998.8,N
1631583935.7,286047000.5,N
1631583955.6,286046998.3,N
1631583975.4,286047001.1,N
1631583995.2,286047000.7,N
1631584015.1,286047000.1,N
1631584016.0,286047000.1,N
1631584035.8,286047002.3,N
1631584055.7,286047002.8,N
1631584075.5,286047002.0,N
1631584095.3,286047002.1,N
1631584115.2,286046999.8,N
1631584135.9,286046999.7,N
1631584155.7,286047000.0,N
1631584175.6,286047000.6,N
1631584195.4,286047000.6,N
1631584215.3,286047001.0,N
1631584235.1,286047000.4,N
1631584236.0,286047000.4,N
1631584255.8,286047000.8,N
1631584275.7,286047000.6,N
1631584295.5,286046998.6,N
1631584315.3,286047001.0,N
1631584335.2,286047000.1,N
1631584355.0,286047001.1,N
1631584355.9,286047001.1,N
1631584375.8,286046998.8,N
1631584395.6,286046998.7,N
1631584415.4,286047001.1,N
1631584435.3,286047000.4,N
1631584455.1,286047000.8,N
1631584475.8,286046998.7,N
1631584495.7,286046998.7,N
1631584515.5,286046998.4,N
1631584535.4,286046998.7,N
1631584555.2,286046998.7,N
1631584575.0,286046999.9,N
1631584575.9,286046999.9,N
1631584595.8,286047002.4,N
1631584615.6,286047000.6,N
1631584635.4,286046999.7,N
1631584655.3,286047002.6,N
1631584675.1,286046999.7,N
1631584695.9,286047000.2,N
1631584715.7,286047000.6,N
1631584735.5,286047002.5,N
1631584755.4,286047002.7,N
1631584775.2,286046999.8,N
1631584795.0,286047002.6,N
1631584795.9,286047002.6,N
